Location: *
(46.3500°N, 10.9000°E)
Time: 05:22:38
(UTC+00:00)

Resurs 01 Rocket - Pass Details

Date: 09 April 2020
Orbit: 635 x 644 km, 98.0° (Epoch: 01 June)

Event Time Altitude Azimuth Distance (km) Brightness Sun altitude
Exits shadow 19:17:43 20° 138° (SE) 1,457 2.9 -14.0°
Maximum altitude 19:20:28 50° 71° (ENE) 820 1.9 -14.4°
Drops below altitude 10° 19:24:45 10° 357° (N) 2,037 4.6 -15.0°
Sets 19:27:01 0° 352° (N) 2,952 5.6 -15.4°
